Location: Oteiza
(42.6167°N, 1.9500°W)
Time: 23:50:56
(UTC+02:00)

ISS - Visible Passes

Search period start: 28 April 2017 00:00
Search period end: 08 May 2017 00:00
Orbit: 401 x 409 km, 51.6° (Epoch: 29 April)

Date Brightness Start Highest point End Pass type
(mag) Time Alt. Az. Time Alt. Az. Time Alt. Az.
04 May -1.7 06:25:54 10° S 06:28:28 21° SE 06:31:02 10° E visible
05 May -1.1 05:35:23 10° SSE 05:36:35 12° SE 05:37:49 10° ESE visible
06 May -3.2 06:17:24 10° SW 06:20:35 50° SE 06:23:45 10° ENE visible
07 May -2.3 05:27:04 19° S 05:28:35 27° SE 05:31:24 10° ENE visible
